Content
SEND FEEDBACK

Daily
Averages
Monthly
Summary
United States of America

LAKE TAHOE, NEVADA


Home > North America > United States > Nevada
Elevation: 6241 feet     Latitude: 38 58N     Longitude: 119 57W

WEATHER
 
SELECT A DAY
Number of Records: 176,462;   Date Range: 1/1/95 - 9/28/14
 
SHARE

PRINT THIS DATA

[ ← Previous Day ]
WEATHER ALMANAC - FEBRUARY 22, 2013
[ Next Day → ]
[ °C ]   °F
Weather ElementAverageHighLow
Temperature32.7 °F48 °F (3:53 pm)15.1 °F (5:53 am)
Dewpoint14.5 °F25 °F (5:53 pm)3 °F (1:53 pm)
Humidity51.7 %77 % (5:53 am)18 % (1:53 pm)
Barometer30.16 in30.27 in (7:53 am)30.07 in (11:53 pm)
Wind Speed4.5 mph18.4 mph (10:53 pm)
Wind Gust20.7 mph (11:53 pm)
Weather ElementAverage
Visibility10 mi
Wind DirectionENE (83.5 °)

Weather ElementTotal
Precipitation---
Heating Degree Days33.5 (Base 65)
Averaged from 23 records on February 22, 2013
WEATHER CONDITIONS BREAKOUT
WIND DIRECTION BREAKOUT
WEATHER BY HOUR - FEBRUARY 22, 2013
[ °C ]   °F
Local TimeTemperatureDewpointHumidityBarometerVisibilityWind DirectionWind SpeedGust SpeedPrecipitationEventsConditions
1:53 AM19.9 °F10.0 °F65 %30.13 in10.0 miCalmClear
2:53 AM18.0 °F9.0 °F68 %30.14 in10.0 miSSW (200°)3.5 mphClear
3:53 AM19.0 °F10.0 °F68 %30.14 in10.0 miSSW (210°)3.5 mphClear
4:53 AM18.0 °F10.0 °F71 %30.17 in10.0 miCalmClear
5:53 AM15.1 °F9.0 °F77 %30.22 in10.0 miCalmClear
6:53 AM15.1 °F9.0 °F77 %30.24 in10.0 miSSW (200°)3.5 mphClear
7:53 AM16.0 °F10.0 °F77 %30.27 in10.0 miCalmClear
8:53 AM27.0 °F15.1 °F61 %30.23 in10.0 miSouth (190°)4.6 mphClear
9:53 AM34.0 °F15.1 °F46 %30.22 in10.0 miCalmClear
10:53 AM39.9 °F15.1 °F36 %30.19 in10.0 miCalmClear
11:53 AM42.1 °F17.1 °F37 %30.19 in10.0 miNE (40°)8.1 mphClear
12:53 PM43.0 °F5.0 °F21 %30.16 in10.0 miNNE (20°)5.8 mphClear
1:53 PM45.0 °F3.0 °F18 %30.13 in10.0 miNNE (30°)5.8 mphClear
2:53 PM46.0 °F7.0 °F20 %30.12 in10.0 miNE (40°)4.6 mphMostly Cloudy
3:53 PM48.0 °F9.0 °F21 %30.10 in10.0 miNE (40°)4.6 mphScattered Clouds
4:53 PM44.1 °F23.0 °F43 %30.12 in10.0 miCalmClear
5:53 PM39.9 °F25.0 °F55 %30.17 in10.0 miSSW (200°)8.1 mphClear
6:53 PM37.9 °F24.1 °F57 %30.18 in10.0 miVariable4.6 mphClear
7:53 PM36.0 °F23.0 °F59 %30.18 in10.0 miCalmClear
8:53 PM37.9 °F19.0 °F47 %30.12 in10.0 miSSW (210°)5.8 mphPartly Cloudy
9:53 PM37.9 °F19.9 °F48 %30.09 in10.0 miSSW (200°)11.5 mph19.6 mphClear
10:53 PM37.0 °F23.0 °F57 %30.09 in10.0 miSouth (190°)18.4 mphOvercast
11:53 PM36.0 °F23.0 °F59 %30.07 in10.0 miSSE (150°)11.5 mph20.7 mphOvercast
Hourly data recorded from KTVL, located miles away from Lake Tahoe, Nevada







STORIES FROM OUR PARTNERS